TimeCST,TemperatureF,Dew PointF,Humidity,Sea Level PressureIn,VisibilityMPH,Wind Direction,Wind SpeedMPH,Gust SpeedMPH,PrecipitationIn,Events,Conditions,WindDirDegrees,DateUTC
12:54 AM,41.0,37.0,86,29.81,8.0,SSE,8.1,-,N/A,,Clear,160,2012-12-01 06:54:00
1:54 AM,39.2,35.6,87,29.81,8.0,SSE,8.1,-,N/A,,Clear,150,2012-12-01 07:54:00
2:54 AM,37.4,35.6,93,29.79,8.0,SSE,4.6,-,N/A,,Clear,160,2012-12-01 08:54:00
3:54 AM,35.6,33.8,93,29.80,4.0,West,10.4,-,N/A,,Clear,280,2012-12-01 09:54:00
4:54 AM,36.0,33.1,89,29.76,8.0,SSW,3.5,-,N/A,,Clear,210,2012-12-01 10:54:00
5:54 AM,35.6,33.8,93,29.75,9.0,WSW,4.6,-,N/A,,Clear,240,2012-12-01 11:54:00
6:54 AM,36.0,33.1,89,29.77,9.0,WSW,8.1,-,N/A,,Clear,240,2012-12-01 12:54:00
7:54 AM,35.6,33.8,93,29.78,8.0,WNW,8.1,-,N/A,,Clear,300,2012-12-01 13:54:00
8:54 AM,39.2,33.8,81,29.80,8.0,WNW,8.1,-,N/A,,Clear,290,2012-12-01 14:54:00
9:54 AM,48.0,28.9,48,29.83,10.0,WNW,13.8,-,N/A,,Clear,300,2012-12-01 15:54:00
10:54 AM,48.2,32.0,54,29.87,10.0,NNW,17.3,-,N/A,,Clear,330,2012-12-01 16:54:00
11:54 AM,51.8,35.6,54,29.87,10.0,North,21.9,28.8,N/A,,Clear,350,2012-12-01 17:54:00
12:54 PM,55.0,36.0,49,29.86,10.0,North,16.1,-,N/A,,Clear,360,2012-12-01 18:54:00
1:54 PM,59.0,36.0,42,29.87,10.0,North,15.0,-,N/A,,Clear,360,2012-12-01 19:54:00
2:54 PM,63.0,34.0,34,29.85,10.0,NE,11.5,-,N/A,,Clear,40,2012-12-01 20:54:00
3:54 PM,64.0,33.1,31,29.87,10.0,NE,8.1,-,N/A,,Clear,50,2012-12-01 21:54:00
4:54 PM,62.1,33.1,34,29.90,10.0,East,3.5,-,N/A,,Clear,80,2012-12-01 22:54:00
5:54 PM,53.1,33.1,47,29.94,10.0,Calm,Calm,-,N/A,,Clear,0,2012-12-01 23:54:00
6:54 PM,48.9,32.0,52,29.96,10.0,Calm,Calm,-,N/A,,Clear,0,2012-12-02 00:54:00
7:54 PM,45.0,32.0,60,29.99,10.0,SW,4.6,-,N/A,,Clear,220,2012-12-02 01:54:00
8:54 PM,45.0,32.0,60,30.00,10.0,SSW,4.6,-,N/A,,Clear,210,2012-12-02 02:54:00
9:54 PM,44.1,32.0,63,29.99,10.0,WSW,4.6,-,N/A,,Clear,240,2012-12-02 03:54:00
10:54 PM,43.0,30.9,62,30.00,10.0,West,6.9,-,N/A,,Clear,280,2012-12-02 04:54:00
11:54 PM,41.0,30.0,65,30.01,10.0,WNW,6.9,-,N/A,,Clear,290,2012-12-02 05:54:00